RYR42ZV EGCC-LEAL

Flight info

Callsign RYR42ZV
Flight time 2h 23m
Altitude 39000
Route LISTO P18 TELBA L151 KIDLI UN859 SOPIL DCT BALAN DCT LMG DCT PIMQO DCT AGN DCT ANETO DCT POSSY DCT XIMPE DCT RIMES N860 VLC
Aircraft B738/M-SDE2E3FGHIRWXY/LB1

Departure

Time 2026-05-06 20:44
Airport Manchester Airport (EGCC)

Arrival

Time 2026-05-06 23:07
Airport Alicante-Elche Miguel Hernández Airport (LEAL)
Time Latitude Longitude Altitude Speed Heading
2026-05-06 20:21 53.36088 -2.26793 254 ft 0 kts 313°
2026-05-06 20:30 53.36087 -2.26792 254 ft 1 kts 313°
2026-05-06 20:30 53.36055 -2.26736 254 ft 4 kts 306°
2026-05-06 20:30 53.36050 -2.26703 254 ft 4 kts 238°
2026-05-06 20:31 53.36064 -2.26670 254 ft 4 kts 236°
2026-05-06 20:31 53.36077 -2.26631 254 ft 4 kts 243°
2026-05-06 20:31 53.36087 -2.26600 254 ft 4 kts 238°
2026-05-06 20:31 53.36102 -2.26563 254 ft 4 kts 231°
2026-05-06 20:32 53.36115 -2.26536 254 ft 4 kts 231°
2026-05-06 20:32 53.36132 -2.26501 254 ft 4 kts 231°
2026-05-06 20:32 53.36138 -2.26488 254 ft 0 kts 231°
2026-05-06 20:36 53.36138 -2.26489 254 ft 0 kts 231°
2026-05-06 20:36 53.36115 -2.26536 254 ft 10 kts 230°
2026-05-06 20:37 53.36072 -2.26646 254 ft 11 kts 242°
2026-05-06 20:37 53.36025 -2.26751 254 ft 12 kts 231°
2026-05-06 20:37 53.35972 -2.26845 254 ft 8 kts 203°
2026-05-06 20:37 53.35919 -2.26828 255 ft 8 kts 184°
2026-05-06 20:38 53.35878 -2.26885 255 ft 8 kts 230°
2026-05-06 20:38 53.35841 -2.26966 255 ft 9 kts 237°
2026-05-06 20:38 53.35810 -2.27057 254 ft 9 kts 241°
2026-05-06 20:38 53.35769 -2.27145 254 ft 11 kts 230°
2026-05-06 20:39 53.35708 -2.27272 254 ft 17 kts 231°
2026-05-06 20:39 53.35620 -2.27456 244 ft 23 kts 231°
2026-05-06 20:39 53.35519 -2.27663 239 ft 23 kts 231°
2026-05-06 20:39 53.35460 -2.27792 239 ft 11 kts 248°
2026-05-06 20:40 53.35451 -2.27927 237 ft 13 kts 242°
2026-05-06 20:40 53.35382 -2.28040 239 ft 14 kts 224°
2026-05-06 20:40 53.35311 -2.28155 236 ft 16 kts 224°
2026-05-06 20:40 53.35223 -2.28319 231 ft 21 kts 232°
2026-05-06 20:41 53.35123 -2.28525 226 ft 24 kts 231°
2026-05-06 20:41 53.35030 -2.28713 227 ft 16 kts 225°
2026-05-06 20:41 53.34977 -2.28752 226 ft 7 kts 156°
2026-05-06 20:41 53.34958 -2.28730 227 ft 0 kts 140°
2026-05-06 20:42 53.34950 -2.28718 229 ft 6 kts 141°
2026-05-06 20:42 53.34888 -2.28634 228 ft 14 kts 141°
2026-05-06 20:42 53.34859 -2.28569 229 ft 6 kts 79°
2026-05-06 20:43 53.34884 -2.28510 230 ft 7 kts 51°
2026-05-06 20:43 53.35008 -2.28253 231 ft 64 kts 51°
2026-05-06 20:43 53.35439 -2.27363 245 ft 131 kts 51°
2026-05-06 20:43 53.36120 -2.25962 452 ft 170 kts 52°
2026-05-06 20:44 53.36857 -2.24470 1499 ft 162 kts 54°
2026-05-06 20:44 53.37492 -2.22824 2100 ft 182 kts 74°
2026-05-06 20:44 53.37546 -2.20614 2454 ft 200 kts 108°
2026-05-06 20:44 53.36741 -2.18707 3036 ft 208 kts 144°
2026-05-06 20:45 53.35460 -2.17421 3540 ft 227 kts 155°
2026-05-06 20:45 53.33832 -2.16839 3948 ft 250 kts 175°
2026-05-06 20:45 53.32053 -2.16930 4707 ft 260 kts 186°
2026-05-06 20:45 53.30235 -2.17267 5552 ft 265 kts 188°
2026-05-06 20:46 53.28407 -2.17606 6413 ft 271 kts 189°
2026-05-06 20:46 53.26518 -2.17954 7230 ft 275 kts 188°
2026-05-06 20:46 53.24599 -2.18278 8070 ft 279 kts 188°
2026-05-06 20:46 53.22645 -2.18594 8887 ft 284 kts 187°
2026-05-06 20:47 53.20658 -2.18910 9729 ft 289 kts 186°
2026-05-06 20:47 53.18640 -2.19226 10462 ft 297 kts 187°
2026-05-06 20:47 53.16498 -2.19562 10687 ft 322 kts 187°
2026-05-06 20:47 53.14216 -2.19918 11063 ft 339 kts 187°
2026-05-06 20:48 53.11843 -2.20287 11809 ft 343 kts 187°
2026-05-06 20:48 53.09455 -2.20558 12649 ft 346 kts 182°
2026-05-06 20:48 53.07037 -2.20539 13451 ft 349 kts 181°
2026-05-06 20:48 53.04592 -2.20446 14175 ft 354 kts 180°
2026-05-06 20:49 53.02118 -2.20332 14883 ft 357 kts 180°
2026-05-06 20:49 52.99627 -2.20208 15615 ft 359 kts 180°
2026-05-06 20:49 52.97146 -2.20078 16302 ft 363 kts 180°
2026-05-06 20:49 52.94603 -2.19946 16971 ft 367 kts 180°
2026-05-06 20:50 52.92040 -2.19813 17693 ft 370 kts 180°
2026-05-06 20:50 52.89454 -2.19678 18388 ft 373 kts 180°
2026-05-06 20:50 52.86843 -2.19542 18971 ft 376 kts 180°
2026-05-06 20:50 52.84223 -2.19406 19545 ft 380 kts 180°
2026-05-06 20:51 52.81552 -2.19269 20117 ft 384 kts 180°
2026-05-06 20:51 52.78865 -2.19134 20680 ft 387 kts 180°
2026-05-06 20:51 52.76187 -2.19002 21243 ft 391 kts 180°
2026-05-06 20:51 52.73466 -2.18591 21767 ft 396 kts 171°
2026-05-06 20:52 52.70783 -2.17389 22321 ft 402 kts 161°
2026-05-06 20:52 52.68230 -2.15458 22862 ft 406 kts 154°
2026-05-06 20:52 52.65720 -2.13276 23394 ft 410 kts 153°
2026-05-06 20:52 52.63196 -2.11036 23839 ft 414 kts 153°
2026-05-06 20:53 52.60653 -2.08779 24279 ft 417 kts 153°
2026-05-06 20:53 52.58091 -2.06506 24728 ft 419 kts 153°
2026-05-06 20:53 52.55515 -2.04224 25159 ft 422 kts 152°
2026-05-06 20:53 52.52921 -2.01928 25574 ft 425 kts 152°
2026-05-06 20:54 52.50311 -1.99619 25978 ft 428 kts 152°
2026-05-06 20:54 52.47686 -1.97301 26446 ft 429 kts 152°
2026-05-06 20:54 52.45048 -1.94973 26864 ft 431 kts 152°
2026-05-06 20:54 52.42393 -1.92635 27243 ft 434 kts 152°
2026-05-06 20:55 52.39727 -1.90289 27619 ft 437 kts 152°
2026-05-06 20:55 52.37065 -1.87951 27981 ft 440 kts 152°
2026-05-06 20:55 52.34359 -1.85577 28365 ft 442 kts 152°
2026-05-06 20:55 52.31637 -1.83192 28729 ft 445 kts 152°
2026-05-06 20:56 52.28901 -1.80798 29082 ft 447 kts 152°
2026-05-06 20:56 52.26147 -1.78392 29415 ft 449 kts 153°
2026-05-06 20:56 52.23384 -1.75981 29803 ft 451 kts 153°
2026-05-06 20:56 52.20611 -1.73566 30151 ft 452 kts 153°
2026-05-06 20:57 52.17829 -1.71147 30406 ft 455 kts 153°
2026-05-06 20:57 52.15030 -1.68716 30663 ft 457 kts 153°
2026-05-06 20:57 52.12211 -1.66271 30932 ft 459 kts 153°
2026-05-06 20:57 52.09382 -1.63820 31199 ft 461 kts 153°
2026-05-06 20:58 52.06582 -1.61398 31499 ft 461 kts 153°
2026-05-06 20:58 52.03748 -1.58950 31879 ft 460 kts 153°
2026-05-06 20:58 52.00928 -1.56517 32287 ft 458 kts 154°
2026-05-06 20:58 51.98122 -1.54100 32677 ft 456 kts 154°
2026-05-06 20:59 51.95333 -1.51701 32997 ft 456 kts 154°
2026-05-06 20:59 51.92529 -1.49293 33304 ft 456 kts 154°
2026-05-06 20:59 51.89725 -1.46889 33643 ft 455 kts 154°
2026-05-06 20:59 51.86929 -1.44493 34005 ft 454 kts 154°
2026-05-06 21:00 51.84141 -1.42108 34316 ft 452 kts 154°
2026-05-06 21:00 51.81347 -1.39721 34532 ft 453 kts 154°
2026-05-06 21:00 51.78591 -1.37373 34712 ft 454 kts 154°
2026-05-06 21:00 51.75728 -1.35228 34953 ft 452 kts 162°
2026-05-06 21:01 51.72738 -1.33717 35217 ft 450 kts 166°
2026-05-06 21:01 51.69727 -1.32322 35444 ft 450 kts 166°
2026-05-06 21:01 51.66717 -1.30872 35609 ft 451 kts 165°
2026-05-06 21:01 51.63713 -1.29372 35809 ft 452 kts 164°
2026-05-06 21:02 51.61726 -1.28361 35967 ft 452 kts 164°
2026-05-06 21:02 51.57718 -1.26315 36261 ft 452 kts 164°
2026-05-06 21:02 51.55733 -1.25304 36386 ft 452 kts 164°
2026-05-06 21:02 51.51753 -1.23288 36666 ft 452 kts 164°
2026-05-06 21:03 51.48765 -1.21737 36874 ft 452 kts 161°
2026-05-06 21:03 51.45873 -1.19727 37052 ft 454 kts 155°
2026-05-06 21:03 51.43032 -1.17503 37243 ft 454 kts 154°
2026-05-06 21:03 51.41138 -1.15919 37373 ft 455 kts 153°
2026-05-06 21:04 51.38376 -1.13452 37554 ft 455 kts 152°
2026-05-06 21:04 51.35624 -1.10952 37737 ft 455 kts 152°
2026-05-06 21:04 51.32868 -1.08446 37904 ft 455 kts 152°
2026-05-06 21:04 51.30118 -1.05946 38128 ft 454 kts 151°
2026-05-06 21:05 51.27379 -1.03457 38350 ft 454 kts 151°
2026-05-06 21:05 51.24630 -1.00964 38487 ft 454 kts 151°
2026-05-06 21:05 51.21915 -0.98505 38636 ft 455 kts 151°
2026-05-06 21:05 51.19160 -0.96013 38773 ft 455 kts 151°
2026-05-06 21:06 51.16408 -0.93528 38910 ft 454 kts 152°
2026-05-06 21:06 51.10902 -0.88567 39005 ft 456 kts 152°
2026-05-06 21:07 51.05383 -0.83608 39009 ft 454 kts 152°
2026-05-06 21:07 50.99885 -0.78682 39006 ft 452 kts 152°
2026-05-06 21:08 50.94415 -0.73794 38997 ft 450 kts 152°
2026-05-06 21:08 50.88963 -0.68935 39000 ft 449 kts 152°
2026-05-06 21:09 50.83543 -0.64119 38996 ft 448 kts 152°
2026-05-06 21:09 50.78106 -0.59299 38999 ft 448 kts 152°
2026-05-06 21:10 50.72652 -0.54479 39007 ft 449 kts 152°
2026-05-06 21:10 50.67200 -0.49672 39005 ft 450 kts 152°
2026-05-06 21:11 50.61718 -0.44852 39001 ft 451 kts 152°
2026-05-06 21:11 50.56233 -0.40042 39003 ft 452 kts 152°
2026-05-06 21:12 50.50759 -0.35255 39007 ft 453 kts 152°
2026-05-06 21:12 50.45246 -0.30446 39006 ft 455 kts 152°
2026-05-06 21:13 50.39705 -0.25626 39003 ft 456 kts 152°
2026-05-06 21:13 50.34146 -0.20820 39005 ft 456 kts 154°
2026-05-06 21:14 50.28232 -0.17528 39015 ft 453 kts 165°
2026-05-06 21:14 50.22167 -0.14776 39010 ft 453 kts 165°
2026-05-06 21:15 50.16114 -0.11984 39003 ft 453 kts 165°
2026-05-06 21:15 50.10070 -0.09202 39006 ft 452 kts 165°
2026-05-06 21:16 50.04072 -0.06457 39004 ft 452 kts 165°
2026-05-06 21:16 49.98038 -0.03708 39003 ft 451 kts 165°
2026-05-06 21:17 49.92024 -0.00975 39006 ft 450 kts 165°
2026-05-06 21:17 49.86016 0.01749 39001 ft 449 kts 165°
2026-05-06 21:18 49.80019 0.04460 39009 ft 449 kts 165°
2026-05-06 21:18 49.74024 0.07164 39007 ft 448 kts 165°
2026-05-06 21:19 49.68037 0.09857 39020 ft 448 kts 165°
2026-05-06 21:19 49.62051 0.12542 39022 ft 448 kts 165°
2026-05-06 21:20 49.56087 0.15211 39021 ft 449 kts 165°
2026-05-06 21:20 49.50086 0.17890 39018 ft 449 kts 165°
2026-05-06 21:21 49.44076 0.20566 39024 ft 450 kts 165°
2026-05-06 21:21 49.38054 0.23240 39022 ft 450 kts 165°
2026-05-06 21:22 49.32021 0.25913 39022 ft 451 kts 165°
2026-05-06 21:22 49.26022 0.28563 39017 ft 452 kts 165°
2026-05-06 21:23 49.19976 0.31228 39003 ft 452 kts 165°
2026-05-06 21:23 49.13916 0.33892 39005 ft 453 kts 165°
2026-05-06 21:24 49.07866 0.36545 39005 ft 453 kts 165°
2026-05-06 21:24 49.01799 0.39198 39000 ft 453 kts 165°
2026-05-06 21:25 48.95775 0.41827 39001 ft 453 kts 165°
2026-05-06 21:25 48.89727 0.44459 39001 ft 452 kts 165°
2026-05-06 21:26 48.83671 0.47087 39007 ft 452 kts 165°
2026-05-06 21:26 48.77622 0.49707 39010 ft 451 kts 165°
2026-05-06 21:27 48.71622 0.52298 39005 ft 450 kts 165°
2026-05-06 21:27 48.65585 0.54899 39006 ft 450 kts 165°
2026-05-06 21:28 48.59569 0.57485 39010 ft 449 kts 165°
2026-05-06 21:28 48.53548 0.60066 39006 ft 449 kts 165°
2026-05-06 21:29 48.47538 0.62636 39003 ft 448 kts 165°
2026-05-06 21:29 48.41574 0.65180 38998 ft 448 kts 165°
2026-05-06 21:30 48.35572 0.67735 38998 ft 448 kts 165°
2026-05-06 21:30 48.29568 0.70283 39005 ft 448 kts 165°
2026-05-06 21:31 48.23561 0.72827 39001 ft 448 kts 165°
2026-05-06 21:31 48.17558 0.75363 38993 ft 449 kts 165°
2026-05-06 21:32 48.11550 0.77895 38997 ft 449 kts 165°
2026-05-06 21:32 48.02551 0.81676 38991 ft 450 kts 166°
2026-05-06 21:33 47.96523 0.84201 38995 ft 450 kts 166°
2026-05-06 21:33 47.90484 0.86724 38996 ft 451 kts 166°
2026-05-06 21:34 47.84427 0.89249 38995 ft 451 kts 166°
2026-05-06 21:34 47.78371 0.91767 38984 ft 452 kts 166°
2026-05-06 21:35 47.72312 0.94281 38991 ft 452 kts 166°
2026-05-06 21:35 47.66252 0.96789 38986 ft 452 kts 166°
2026-05-06 21:36 47.60227 0.99249 38988 ft 452 kts 169°
2026-05-06 21:36 47.57126 0.99875 38983 ft 449 kts 180°
2026-05-06 21:36 47.54014 0.99714 38995 ft 447 kts 186°
2026-05-06 21:37 47.47808 0.99086 38988 ft 447 kts 185°
2026-05-06 21:37 47.41604 0.98484 38989 ft 447 kts 185°
2026-05-06 21:38 47.35393 0.97881 38980 ft 447 kts 185°
2026-05-06 21:38 47.29181 0.97275 38986 ft 447 kts 185°
2026-05-06 21:39 47.23002 0.96671 38989 ft 447 kts 185°
2026-05-06 21:39 47.16790 0.96065 38983 ft 447 kts 185°
2026-05-06 21:40 47.10572 0.95460 38989 ft 447 kts 185°
2026-05-06 21:40 47.04370 0.94858 38989 ft 447 kts 185°
2026-05-06 21:41 46.98154 0.94256 38986 ft 447 kts 185°
2026-05-06 21:41 46.91985 0.93660 38990 ft 447 kts 185°
2026-05-06 21:42 46.85781 0.93062 38992 ft 446 kts 185°
2026-05-06 21:42 46.79585 0.92466 38992 ft 446 kts 185°
2026-05-06 21:43 46.73385 0.91872 38991 ft 446 kts 185°
2026-05-06 21:43 46.67187 0.91279 38993 ft 446 kts 185°
2026-05-06 21:44 46.60989 0.90687 38989 ft 446 kts 185°
2026-05-06 21:44 46.54782 0.90095 38985 ft 446 kts 185°
2026-05-06 21:45 46.48615 0.89509 38989 ft 446 kts 185°
2026-05-06 21:45 46.42423 0.88922 38989 ft 446 kts 185°
2026-05-06 21:46 46.36215 0.88335 38981 ft 446 kts 185°
2026-05-06 21:46 46.30016 0.87749 38983 ft 446 kts 185°
2026-05-06 21:47 46.23823 0.87166 38979 ft 446 kts 185°
2026-05-06 21:47 46.17623 0.86583 38981 ft 446 kts 185°
2026-05-06 21:48 46.11433 0.86003 38979 ft 446 kts 186°
2026-05-06 21:48 46.05243 0.85424 38978 ft 446 kts 186°
2026-05-06 21:49 45.99092 0.84850 38980 ft 446 kts 186°
2026-05-06 21:49 45.92902 0.84273 38974 ft 446 kts 186°
2026-05-06 21:50 45.86705 0.83697 38982 ft 446 kts 186°
2026-05-06 21:50 45.80513 0.83123 38972 ft 445 kts 186°
2026-05-06 21:51 45.75365 0.82647 38980 ft 445 kts 186°
2026-05-06 21:51 45.68171 0.81983 38978 ft 445 kts 186°
2026-05-06 21:52 45.61987 0.81413 38975 ft 445 kts 186°
2026-05-06 21:52 45.56840 0.80940 38971 ft 445 kts 186°
2026-05-06 21:53 45.50664 0.80373 38978 ft 444 kts 186°
2026-05-06 21:53 45.44480 0.79808 38978 ft 444 kts 186°
2026-05-06 21:54 45.38316 0.79245 38982 ft 444 kts 186°
2026-05-06 21:54 45.32160 0.78683 38988 ft 443 kts 186°
2026-05-06 21:55 45.26005 0.78123 38994 ft 443 kts 186°
2026-05-06 21:55 45.19858 0.77566 38998 ft 442 kts 186°
2026-05-06 21:56 45.13754 0.77013 38996 ft 442 kts 186°
2026-05-06 21:56 45.07603 0.76458 38993 ft 441 kts 186°
2026-05-06 21:57 45.01475 0.75905 38990 ft 441 kts 186°
2026-05-06 21:57 44.95355 0.75355 38987 ft 440 kts 186°
2026-05-06 21:58 44.89233 0.74805 38992 ft 440 kts 186°
2026-05-06 21:58 44.83122 0.74257 38995 ft 440 kts 186°
2026-05-06 21:59 44.77049 0.73714 38993 ft 440 kts 186°
2026-05-06 21:59 44.70941 0.73170 38998 ft 440 kts 186°
2026-05-06 22:00 44.64837 0.72626 38997 ft 440 kts 186°
2026-05-06 22:00 44.58728 0.72084 39000 ft 439 kts 187°
2026-05-06 22:01 44.52624 0.71543 39003 ft 440 kts 187°
2026-05-06 22:01 44.46514 0.71002 39003 ft 440 kts 187°
2026-05-06 22:02 44.40444 0.70466 38996 ft 440 kts 187°
2026-05-06 22:02 44.34331 0.69928 39005 ft 439 kts 187°
2026-05-06 22:03 44.28222 0.69391 39020 ft 440 kts 187°
2026-05-06 22:03 44.22114 0.68855 39013 ft 439 kts 187°
2026-05-06 22:04 44.16012 0.68321 39022 ft 439 kts 187°
2026-05-06 22:04 44.09909 0.67788 39022 ft 439 kts 187°
2026-05-06 22:05 44.03816 0.67257 39022 ft 439 kts 187°
2026-05-06 22:05 43.97763 0.66731 39018 ft 438 kts 187°
2026-05-06 22:06 43.91679 0.66202 39020 ft 438 kts 187°
2026-05-06 22:06 43.85598 0.65675 39019 ft 437 kts 187°
2026-05-06 22:07 43.79528 0.65151 39013 ft 437 kts 187°
2026-05-06 22:07 43.73467 0.64628 39024 ft 436 kts 187°
2026-05-06 22:08 43.67411 0.64106 39026 ft 436 kts 187°
2026-05-06 22:08 43.61370 0.63587 39018 ft 435 kts 187°
2026-05-06 22:09 43.55332 0.63069 39028 ft 435 kts 187°
2026-05-06 22:09 43.49309 0.62553 39034 ft 435 kts 187°
2026-05-06 22:10 43.43255 0.62036 39033 ft 435 kts 187°
2026-05-06 22:10 43.37203 0.61520 39034 ft 435 kts 187°
2026-05-06 22:11 43.31195 0.61009 39041 ft 435 kts 187°
2026-05-06 22:11 43.25145 0.60495 39048 ft 435 kts 187°
2026-05-06 22:12 43.19093 0.59982 39037 ft 436 kts 188°
2026-05-06 22:12 43.13036 0.59470 39046 ft 436 kts 188°
2026-05-06 22:13 43.06971 0.58958 39047 ft 437 kts 188°
2026-05-06 22:13 43.00905 0.58447 39034 ft 437 kts 187°
2026-05-06 22:14 42.94832 0.57936 39047 ft 437 kts 187°
2026-05-06 22:14 42.88746 0.57425 39045 ft 438 kts 188°
2026-05-06 22:15 42.82731 0.56378 39051 ft 434 kts 195°
2026-05-06 22:15 42.76846 0.54711 39033 ft 435 kts 196°
2026-05-06 22:16 42.70935 0.53006 39016 ft 435 kts 196°
2026-05-06 22:16 42.65022 0.51310 39032 ft 434 kts 195°
2026-05-06 22:17 42.59112 0.49623 39006 ft 433 kts 195°
2026-05-06 22:17 42.53216 0.47947 39022 ft 432 kts 195°
2026-05-06 22:18 42.47326 0.46275 39017 ft 431 kts 195°
2026-05-06 22:18 42.41449 0.44611 38990 ft 431 kts 195°
2026-05-06 22:19 42.35587 0.42954 38990 ft 429 kts 196°
2026-05-06 22:19 42.29735 0.41303 38998 ft 429 kts 196°
2026-05-06 22:20 42.23895 0.39658 38987 ft 429 kts 196°
2026-05-06 22:20 42.18090 0.38026 38982 ft 428 kts 196°
2026-05-06 22:21 42.12259 0.36390 38991 ft 428 kts 195°
2026-05-06 22:21 42.06426 0.34757 38981 ft 428 kts 195°
2026-05-06 22:22 42.00607 0.33130 38976 ft 427 kts 195°
2026-05-06 22:22 41.94788 0.31507 38967 ft 427 kts 196°
2026-05-06 22:23 41.88969 0.29886 38971 ft 427 kts 196°
2026-05-06 22:23 41.83154 0.28270 38967 ft 427 kts 196°
2026-05-06 22:24 41.77378 0.26667 38956 ft 426 kts 196°
2026-05-06 22:24 41.71566 0.25058 38970 ft 426 kts 196°
2026-05-06 22:25 41.65759 0.23453 38971 ft 426 kts 196°
2026-05-06 22:25 41.59948 0.21849 38967 ft 427 kts 196°
2026-05-06 22:26 41.54134 0.20248 38968 ft 427 kts 196°
2026-05-06 22:26 41.48317 0.18649 38972 ft 427 kts 196°
2026-05-06 22:27 41.42494 0.17051 38979 ft 427 kts 196°
2026-05-06 22:27 41.36672 0.15457 38974 ft 427 kts 196°
2026-05-06 22:28 41.30846 0.13864 38971 ft 427 kts 196°
2026-05-06 22:28 41.25028 0.12277 38973 ft 427 kts 196°
2026-05-06 22:29 41.19215 0.10693 38984 ft 426 kts 196°
2026-05-06 22:29 41.13410 0.09115 38987 ft 425 kts 196°
2026-05-06 22:30 41.07649 0.07551 38985 ft 425 kts 196°
2026-05-06 22:30 41.01849 0.05980 38987 ft 424 kts 196°
2026-05-06 22:31 40.96070 0.04417 38999 ft 423 kts 196°
2026-05-06 22:31 40.90299 0.02859 38963 ft 423 kts 196°
2026-05-06 22:32 40.84545 0.01308 38989 ft 422 kts 196°
2026-05-06 22:32 40.78805 -0.00236 39002 ft 420 kts 196°
2026-05-06 22:33 40.73067 -0.01777 39000 ft 420 kts 196°
2026-05-06 22:33 40.67382 -0.03301 39002 ft 420 kts 196°
2026-05-06 22:34 40.61657 -0.04835 39012 ft 420 kts 196°
2026-05-06 22:34 40.58784 -0.05603 38883 ft 424 kts 196°
2026-05-06 22:34 40.55876 -0.06388 38636 ft 426 kts 197°
2026-05-06 22:35 40.53022 -0.07362 38353 ft 422 kts 200°
2026-05-06 22:35 40.50214 -0.08474 38077 ft 420 kts 201°
2026-05-06 22:35 40.47437 -0.09616 37776 ft 417 kts 201°
2026-05-06 22:35 40.44675 -0.10750 37503 ft 415 kts 201°
2026-05-06 22:36 40.41925 -0.11862 37234 ft 412 kts 201°
2026-05-06 22:36 40.39191 -0.12952 36965 ft 410 kts 201°
2026-05-06 22:36 40.36468 -0.14028 36684 ft 407 kts 201°
2026-05-06 22:36 40.33766 -0.15091 36424 ft 403 kts 201°
2026-05-06 22:37 40.31094 -0.16140 36108 ft 398 kts 201°
2026-05-06 22:37 40.28451 -0.17177 35733 ft 394 kts 201°
2026-05-06 22:37 40.25838 -0.18202 35343 ft 390 kts 201°
2026-05-06 22:37 40.23251 -0.19220 34974 ft 385 kts 202°
2026-05-06 22:38 40.20738 -0.20213 34616 ft 380 kts 202°
2026-05-06 22:38 40.18213 -0.21211 34258 ft 376 kts 202°
2026-05-06 22:38 40.15720 -0.22197 33882 ft 373 kts 202°
2026-05-06 22:38 40.13250 -0.23174 33460 ft 369 kts 202°
2026-05-06 22:39 40.10809 -0.24138 33072 ft 365 kts 202°
2026-05-06 22:39 40.08391 -0.25092 32709 ft 360 kts 202°
2026-05-06 22:39 40.06003 -0.26034 32365 ft 357 kts 202°
2026-05-06 22:39 40.03634 -0.26967 32010 ft 354 kts 202°
2026-05-06 22:40 40.01291 -0.27889 31647 ft 350 kts 202°
2026-05-06 22:40 39.99748 -0.28495 31424 ft 348 kts 202°
2026-05-06 22:40 39.97433 -0.29392 31080 ft 346 kts 201°
2026-05-06 22:40 39.95131 -0.30278 30741 ft 344 kts 201°
2026-05-06 22:41 39.90560 -0.32036 30059 ft 342 kts 201°
2026-05-06 22:41 39.88273 -0.32918 29659 ft 342 kts 201°
2026-05-06 22:41 39.85989 -0.33805 29268 ft 342 kts 201°
2026-05-06 22:42 39.83711 -0.34692 28904 ft 341 kts 201°
2026-05-06 22:42 39.81465 -0.35568 28516 ft 342 kts 201°
2026-05-06 22:42 39.79181 -0.36458 28126 ft 342 kts 201°
2026-05-06 22:42 39.76904 -0.37344 27758 ft 342 kts 201°
2026-05-06 22:43 39.74636 -0.38226 27389 ft 342 kts 201°
2026-05-06 22:43 39.72346 -0.39115 27015 ft 342 kts 201°
2026-05-06 22:43 39.70062 -0.40001 26646 ft 342 kts 201°
2026-05-06 22:43 39.67781 -0.40886 26278 ft 343 kts 201°
2026-05-06 22:44 39.65494 -0.41772 25900 ft 343 kts 200°
2026-05-06 22:44 39.63212 -0.42655 25516 ft 342 kts 200°
2026-05-06 22:44 39.60929 -0.43538 25147 ft 341 kts 200°
2026-05-06 22:44 39.58663 -0.44414 24775 ft 339 kts 200°
2026-05-06 22:45 39.56411 -0.45284 24390 ft 337 kts 200°
2026-05-06 22:45 39.54167 -0.46151 24034 ft 335 kts 200°
2026-05-06 22:45 39.51932 -0.47014 23661 ft 334 kts 200°
2026-05-06 22:45 39.49707 -0.47872 23250 ft 333 kts 200°
2026-05-06 22:46 39.47492 -0.48714 22832 ft 331 kts 199°
2026-05-06 22:46 39.45268 -0.49518 22416 ft 330 kts 199°
2026-05-06 22:46 39.43063 -0.50300 22051 ft 328 kts 199°
2026-05-06 22:46 39.40899 -0.51065 21700 ft 325 kts 198°
2026-05-06 22:47 39.38727 -0.51832 21357 ft 322 kts 198°
2026-05-06 22:47 39.36572 -0.52596 21001 ft 320 kts 198°
2026-05-06 22:47 39.34431 -0.53355 20665 ft 317 kts 199°
2026-05-06 22:47 39.32310 -0.54108 20330 ft 315 kts 199°
2026-05-06 22:48 39.30202 -0.54857 20007 ft 313 kts 198°
2026-05-06 22:48 39.28108 -0.55601 19677 ft 312 kts 198°
2026-05-06 22:48 39.26020 -0.56343 19346 ft 310 kts 198°
2026-05-06 22:48 39.23945 -0.57080 19021 ft 309 kts 198°
2026-05-06 22:49 39.21879 -0.57814 18693 ft 308 kts 198°
2026-05-06 22:49 39.19819 -0.58545 18379 ft 307 kts 198°
2026-05-06 22:49 39.17762 -0.59274 18012 ft 306 kts 198°
2026-05-06 22:49 39.15713 -0.60000 17657 ft 305 kts 198°
2026-05-06 22:50 39.13669 -0.60723 17314 ft 303 kts 198°
2026-05-06 22:50 39.11640 -0.61441 16992 ft 302 kts 198°
2026-05-06 22:50 39.09646 -0.62147 16664 ft 301 kts 198°
2026-05-06 22:50 39.07626 -0.62861 16332 ft 301 kts 198°
2026-05-06 22:51 39.05610 -0.63573 16017 ft 300 kts 197°
2026-05-06 22:51 39.03603 -0.64282 15696 ft 299 kts 197°
2026-05-06 22:51 39.01592 -0.64991 15370 ft 299 kts 197°
2026-05-06 22:51 38.99590 -0.65698 15053 ft 299 kts 197°
2026-05-06 22:52 38.97584 -0.66404 14729 ft 299 kts 197°
2026-05-06 22:52 38.95581 -0.67110 14405 ft 298 kts 197°
2026-05-06 22:52 38.93611 -0.67895 14193 ft 294 kts 200°
2026-05-06 22:52 38.91695 -0.68756 13894 ft 293 kts 201°
2026-05-06 22:53 38.89775 -0.69629 13590 ft 292 kts 201°
2026-05-06 22:53 38.87862 -0.70503 13249 ft 291 kts 201°
2026-05-06 22:53 38.85956 -0.71373 12926 ft 290 kts 201°
2026-05-06 22:53 38.84064 -0.72237 12605 ft 288 kts 201°
2026-05-06 22:54 38.82198 -0.73087 12300 ft 287 kts 200°
2026-05-06 22:54 38.80313 -0.73946 11982 ft 286 kts 200°
2026-05-06 22:54 38.78450 -0.74793 11679 ft 285 kts 200°
2026-05-06 22:54 38.76583 -0.75642 11369 ft 284 kts 200°
2026-05-06 22:55 38.74720 -0.76489 11072 ft 283 kts 200°
2026-05-06 22:55 38.72864 -0.77332 10768 ft 283 kts 200°
2026-05-06 22:55 38.71006 -0.78176 10463 ft 283 kts 199°
2026-05-06 22:55 38.69150 -0.79017 10166 ft 283 kts 199°
2026-05-06 22:56 38.67313 -0.79850 10031 ft 277 kts 199°
2026-05-06 22:56 38.65482 -0.80680 9734 ft 282 kts 199°
2026-05-06 22:56 38.63618 -0.81524 9415 ft 286 kts 199°
2026-05-06 22:56 38.61746 -0.82371 9107 ft 285 kts 199°
2026-05-06 22:57 38.59877 -0.83216 8799 ft 284 kts 199°
2026-05-06 22:57 38.58018 -0.84057 8495 ft 282 kts 199°
2026-05-06 22:57 38.56173 -0.84891 8200 ft 280 kts 198°
2026-05-06 22:57 38.54342 -0.85718 7916 ft 278 kts 198°
2026-05-06 22:58 38.52541 -0.86530 7645 ft 276 kts 198°
2026-05-06 22:58 38.50734 -0.87346 7385 ft 273 kts 198°
2026-05-06 22:58 38.48960 -0.88146 7211 ft 267 kts 198°
2026-05-06 22:58 38.47224 -0.88929 7026 ft 262 kts 198°
2026-05-06 22:59 38.45519 -0.89698 6852 ft 257 kts 198°
2026-05-06 22:59 38.43844 -0.90452 6675 ft 252 kts 198°
2026-05-06 22:59 38.42205 -0.91190 6509 ft 246 kts 198°
2026-05-06 22:59 38.40621 -0.91902 6329 ft 237 kts 197°
2026-05-06 23:00 38.39092 -0.92590 6095 ft 230 kts 197°
2026-05-06 23:00 38.37610 -0.93256 5902 ft 222 kts 197°
2026-05-06 23:00 38.36173 -0.93856 5692 ft 214 kts 187°
2026-05-06 23:00 38.34772 -0.93653 5528 ft 198 kts 153°
2026-05-06 23:01 38.33694 -0.92631 5405 ft 194 kts 129°
2026-05-06 23:01 38.33041 -0.91153 5273 ft 193 kts 105°
2026-05-06 23:01 38.32817 -0.89467 5083 ft 194 kts 99°
2026-05-06 23:01 38.32609 -0.87761 4845 ft 195 kts 99°
2026-05-06 23:02 38.32396 -0.86074 4586 ft 192 kts 101°
2026-05-06 23:02 38.32174 -0.84422 4352 ft 187 kts 99°
2026-05-06 23:02 38.31982 -0.82819 4101 ft 184 kts 99°
2026-05-06 23:02 38.31775 -0.81219 3836 ft 181 kts 100°
2026-05-06 23:03 38.31560 -0.79655 3596 ft 177 kts 100°
2026-05-06 23:03 38.31345 -0.78121 3369 ft 174 kts 100°
2026-05-06 23:03 38.31133 -0.76620 3135 ft 171 kts 100°
2026-05-06 23:03 38.30924 -0.75140 2912 ft 169 kts 99°
2026-05-06 23:04 38.30717 -0.73670 2681 ft 167 kts 99°
2026-05-06 23:04 38.30514 -0.72228 2475 ft 164 kts 99°
2026-05-06 23:04 38.30315 -0.70816 2234 ft 160 kts 98°
2026-05-06 23:04 38.30124 -0.69453 2045 ft 157 kts 98°
2026-05-06 23:05 38.29928 -0.68059 1829 ft 159 kts 98°
2026-05-06 23:05 38.29736 -0.66687 1623 ft 159 kts 98°
2026-05-06 23:05 38.29545 -0.65322 1419 ft 155 kts 98°
2026-05-06 23:05 38.29360 -0.64000 1192 ft 150 kts 98°
2026-05-06 23:06 38.29180 -0.62717 991 ft 145 kts 98°
2026-05-06 23:06 38.29004 -0.61454 803 ft 145 kts 98°
2026-05-06 23:06 38.28826 -0.60175 617 ft 148 kts 98°
2026-05-06 23:06 38.28647 -0.58886 413 ft 149 kts 98°
2026-05-06 23:07 38.28464 -0.57578 199 ft 151 kts 98°
2026-05-06 23:07 38.28288 -0.56326 114 ft 124 kts 100°
2026-05-06 23:07 38.28174 -0.55510 95 ft 70 kts 100°
2026-05-06 23:07 38.28122 -0.55097 82 ft 30 kts 92°
2026-05-06 23:08 38.28150 -0.54873 69 ft 20 kts 71°
2026-05-06 23:08 38.28194 -0.54721 65 ft 13 kts 55°
2026-05-06 23:08 38.28248 -0.54766 67 ft 12 kts 281°
2026-05-06 23:08 38.28263 -0.54872 73 ft 12 kts 280°
2026-05-06 23:09 38.28277 -0.54974 77 ft 12 kts 280°
2026-05-06 23:09 38.28291 -0.55075 80 ft 11 kts 281°
2026-05-06 23:09 38.28306 -0.55172 84 ft 11 kts 281°
2026-05-06 23:09 38.28358 -0.55211 88 ft 10 kts 34°
2026-05-06 23:10 38.28405 -0.55151 89 ft 10 kts 11°
2026-05-06 23:10 38.28442 -0.55208 89 ft 9 kts 281°
2026-05-06 23:10 38.28477 -0.55243 87 ft 6 kts
2026-05-06 23:10 38.28511 -0.55235 91 ft 0 kts 10°
2026-05-06 23:11 38.28516 -0.55234 90 ft 0 kts 10°